STARLINK-34857, 65102

Orbit data source: Space-Track

STARLINK-34857, 65102 is a payload satellite owned by SpaceX/Seattle (US) in LEO that was launched on Mon, 04 Aug 2025 UTC via an FALCON 9 launch vehicle from the Air Force Eastern Test Range (AFETR). Payload-class satellites include a variety of spacecraft equipped with specific instruments for various scientific and technological missions. These include communications satellites like Starlink; space stations such as the ISS; scientific satellites like the Hubble; Earth observation satellites from companies like Planet Labs, Umbra, and HawkEye 360; GPS; miniature CubeSats for education and research; and military/defense satellites.

Loading next visibility...
Identifier
65102, 2025-167AA
Orbit
LEO
Country
Flag of USUS
Related business
Manufacturer
SpaceX/Seattle
Mission
Operational Commercial Communications
Bus & Motor
STARLINK V2MO, Unknown motor
Mass
575 kg wet, ~530 kg dry
Launch date (UTC)
2025-08-04 (11 months ago)
Launch vehicle
FALCON 9
Launch site
Air Force Eastern Test Range (AFETR)
Object type
Payload
Rocket body
Debris
Shape & HBR
Box + 2 Pan, 17.7 m
Radar Cross Section
36.964 m², Large (>1 m²)

Expand to show TLE details & history
Last TLE update: 1 day ago

TLE from 1 day ago
0 STARLINK-34857
1 65102U 25167AA  26174.90789529  .00008790  00000-0  27099-3 0  9998
2 65102  53.1593 248.2101 0002296  83.7748 276.3516 15.34400365 49808
Epoch: 2026-06-23T21:47Z
TLE epoch observation values (Epoch: 2026-06-23T21:47:22.153Z)
Latitude
-0.00001°
Longitude
9.29507°
Altitude
463.43 km
Speed
7.636 km/s
True Right ascension
16h 32m 50s
True Declination
0° 00' 00"
Sunlit
Object was in full shadow at epoch
Visualization orbit readout
Latitude
Unknown
Longitude
Unknown
Altitude
Unknown
Speed
Unknown
Apparent Right ascension
Unknown
Apparent Declination
Unknown
Sunlit
N/A
Visualization observer readout
Local Sidereal Time
17:58:59
Azimuth
Unknown
Elevation
Unknown
Doppler factor
Unknown
Orbital elements
Apogee altitude
464.53 km
Perigee altitude
461.388 km
Semi-major axis
6,841.096 km
Eccentricity
0.00023
Inclination
53.1593°
RAAN
248.2101°
Arg. of periapsis
83.7748°
True anomaly
276.32545°
Mean anomaly
276.3516°
Eccentric anomaly
276.33853°
Mean motion
3.83579 °/min
Orbital period
93.85 mins
BSTAR
0.00027099
Loading maneuver chart data...
Computing Atmospheric mass density...
Loading historical data...
Loading historical data...
Loading historical data...
Loading historical data...
Loading historical data...
Loading historical data...
Loading historical data...

Documentation

Showing up to 5 results
|